Location: Newark
(33.4453°N, 112.0669°W)
Time: 12:55:34
(UTC+00:00)

Tiros 1 - Visible Passes

Search period start: 17 February 2020 00:00
Search period end: 27 February 2020 00:00
Orbit: 630 x 664 km, 48.4° (Epoch: 16 February)

Date Brightness Start Highest point End Pass type
(mag) Time Alt. Az. Time Alt. Az. Time Alt. Az.
17 Feb 8.9 12:09:07 22° N 12:09:07 22° N 12:11:32 10° NNE visible
18 Feb 9.0 12:34:04 16° NNW 12:34:15 16° NNW 12:37:13 10° NNE visible
19 Feb 10.0 11:21:19 11° NNE 11:21:19 11° NNE 11:21:31 10° NNE visible
19 Feb 9.3 12:58:58 10° NNW 13:01:00 13° N 13:03:06 10° NNE visible
20 Feb 9.6 11:46:11 13° NNE 11:46:11 13° NNE 11:47:11 10° NNE visible
20 Feb 9.4 13:25:52 10° NNW 13:27:51 12° N 13:29:50 10° NNE visible
21 Feb 9.4 12:11:02 13° N 12:11:02 13° N 12:13:03 10° NNE visible
22 Feb 9.5 12:35:52 10° NNW 12:37:43 12° N 12:39:40 10° NNE visible
23 Feb 9.4 13:01:53 10° NNW 13:04:31 15° NNE 13:07:11 10° NE visible
24 Feb 9.6 11:47:53 12° N 11:47:53 12° N 11:49:30 10° NNE visible
24 Feb 9.1 13:27:35 10° NNW 13:31:11 22° NNE 13:34:46 10° ENE visible
25 Feb 9.4 12:12:45 12° N 12:14:23 14° NNE 12:16:57 10° NE visible
26 Feb 9.2 12:37:40 10° NNW 12:41:04 21° NNE 12:44:34 10° ENE visible
